User: anonymous   Login
Location: Unspecified
(0.0000°N, 0.0000°E)
Time: 00:45:45
(UTC+00:00)
Language:

STARLINK-30356 - Orbit

View from above orbital plane
View from above orbital plane
View from above satellite
View from above satellite

Ground track
Ground track

The orbit is defined by the following mean orbital elements,

1 57748U          26145.34399925 +.00000000 +00000-0 +63870-4 0 00004
2 57748  43.0038  99.2164 0001191 270.5180  89.5536 15.27583093    06
Epoch (UTC): 25 May 2026 08:15:21
Eccentricity: 0.0001191
inclination: 43.0038°
perigee height: 482 km
apogee height: 484 km
right ascension of ascending node: 99.2164°
argument of perigee: 270.5180°
revolutions per day: 15.27583093
mean anomaly at epoch: 89.5536°

The dashed part of the orbit path shows where the satellite is in the earth's shadow,  

DLR